Dewpoint
8 7 5 5 4 3 3 5 5 6 5 4 0 -1 -1 -2 -7 -13 -15 -16 -16 -15 -14 -14 -14 -13 -11 -14 -21 -23 -21 -20 -18 -18 -16 -17 -16 -14 -12 -11 -11 -11 -13
7 6 5 4 4 4 5 6 6 4 2 1 0 -0 -2 -8 -13 -15 -14 -14 -14 -14 -14 -13 -12 -17 -24 -23 -23 -23 -23 -20 -16 -13 -15 -16 -14 -12 -10 -11 -11 -10 -12
6 6 5 4 4 5 6 5 5 4 1 1 -1 -4 -8 -12 -14 -13 -13 -13 -14 -12 -12 -20 -25 -23 -23 -23 -23 -23 -21 -17 -14 -11 -12 -11 -11 -11 -11 -12 -11 -11 -12
6 6 5 5 5 6 6 5 3 2 0 -2 -6 -11 -12 -13 -12 -12 -13 -12 -12 -20 -25 -23 -23 -22 -22 -23 -22 -19 -16 -14 -13 -11 -10 -8 -7 -9 -10 -9 -10 -8 -8
6 6 5 5 6 6 5 2 0 -2 -4 -8 -11 -11 -11 -11 -13 -12 -11 -19 -25 -23 -23 -22 -21 -22 -22 -20 -16 -15 -12 -11 -9 -9 -7 -8 -10 -8 -9 -9 -9 -8 -9
6 6 6 6 5 4 1 -1 -3 -5 -8 -10 -11 -11 -12 -13 -11 -15 -26 -23 -23 -22 -21 -21 -21 -20 -19 -17 -14 -11 -7 -8 -8 -9 -10 -10 -8 -9 -10 -10 -10 -10 -9
6 6 5 5 3 0 -2 -4 -5 -8 -10 -10 -11 -13 -12 -12 -24 -24 -23 -23 -22 -21 -20 -20 -19 -17 -16 -15 -15 -12 -9 -10 -10 -11 -11 -9 -10 -12 -10 -10 -11 -10 -10
5 4 4 3 -1 -3 -3 -4 -7 -10 -10 -11 -12 -11 -19 -25 -23 -23 -22 -21 -20 -20 -19 -18 -16 -17 -17 -14 -7 -8 -10 -11 -12 -11 -9 -11 -13 -13 -12 -12 -11 -12 -13
4 2 0 -1 -2 -4 -8 -9 -10 -10 -12 -11 -13 -24 -23 -22 -22 -22 -21 -19 -19 -18 -16 -14 -16 -18 -16 -7 -8 -9 -11 -12 -11 -11 -12 -13 -13 -13 -13 -12 -13 -12 -12
1 -1 -3 -4 -6 -8 -9 -9 -10 -12 -11 -19 -24 -23 -22 -22 -21 -20 -20 -19 -18 -15 -15 -16 -16 -14 -8 -8 -9 -10 -11 -10 -10 -12 -13 -13 -13 -12 -12 -12 -12 -12 -11
-2 -3 -6 -7 -7 -8 -9 -11 -12 -13 -23 -24 -22 -21 -21 -20 -19 -19 -18 -17 -16 -16 -16 -16 -14 -12 -10 -13 -11 -11 -9 -9 -12 -12 -12 -12 -12 -12 -11 -11 -11 -11 -10
-4 -5 -7 -8 -9 -9 -11 -11 -18 -24 -23 -22 -22 -21 -19 -18 -18 -18 -16 -15 -15 -16 -16 -13 -13 -13 -14 -13 -12 -10 -11 -12 -12 -12 -12 -11 -11 -11 -11 -11 -11 -10 -10
-5 -7 -8 -9 -10 -11 -12 -19 -24 -23 -22 -21 -20 -19 -19 -19 -17 -15 -13 -14 -15 -14 -13 -12 -13 -14 -13 -12 -12 -12 -12 -12 -11 -11 -11 -11 -10 -10 -10 -10 -10 -10 -10
-6 -7 -8 -10 -11 -15 -21 -23 -22 -21 -20 -20 -20 -19 -18 -16 -15 -14 -13 -13 -13 -14 -13 -13 -14 -13 -12 -12 -12 -11 -11 -11 -10 -10 -11 -11 -11 -11 -10 -10 -10 -10 -10
-7 -8 -11 -11 -15 -20 -22 -22 -21 -20 -20 -20 -19 -17 -16 -15 -15 -15 -13 -11 -11 -11 -13 -14 -14 -13 -12 -12 -11 -11 -11 -11 -11 -10 -11 -11 -11 -11 -11 -10 -10 -10 -9
-8 -11 -11 -15 -19 -21 -22 -21 -20 -20 -19 -18 -18 -17 -16 -16 -15 -15 -14 -14 -14 -13 -13 -14 -13 -12 -12 -11 -11 -11 -11 -11 -11 -11 -11 -11 -11 -10 -11 -10 -10 -10 -10
-12 -11 -14 -18 -20 -21 -21 -20 -19 -18 -19 -17 -16 -16 -16 -15 -14 -14 -14 -15 -13 -13 -13 -13 -12 -12 -11 -11 -11 -11 -11 -11 -11 -11 -11 -11 -11 -11 -11 -11 -11 -11 -11
-11 -12 -16 -18 -20 -21 -20 -19 -19 -18 -16 -15 -15 -15 -15 -14 -13 -14 -13 -13 -12 -13 -14 -13 -12 -12 -11 -11 -11 -11 -11 -11 -11 -11 -11 -11 -12 -11 -11 -11 -11 -11 -11
-10 -13 -16 -18 -20 -20 -19 -19 -18 -17 -16 -16 -15 -14 -14 -13 -13 -12 -12 -12 -12 -13 -14 -13 -12 -12 -11 -11 -11 -11 -11 -11 -11 -11 -11 -11 -11 -11 -11 -11 -11 -11 -11
-11 -13 -15 -17 -20 -19 -18 -18 -17 -16 -15 -15 -14 -14 -13 -13 -12 -12 -11 -12 -13 -13 -14 -13 -12 -11 -11 -11 -11 -11 -11 -11 -11 -11 -11 -11 -11 -11 -11 -11 -12 -11 -11
-11 -12 -15 -17 -19 -18 -18 -17 -16 -15 -14 -14 -14 -13 -13 -11 -10 -11 -11 -12 -12 -13 -14 -13 -12 -11 -11 -11 -11 -11 -11 -11 -11 -11 -11 -11 -11 -12 -11 -11 -11 -11 -11
-11 -13 -15 -18 -18 -17 -17 -16 -15 -14 -14 -13 -13 -12 -12 -10 -10 -11 -11 -12 -12 -12 -13 -13 -12 -11 -11 -11 -11 -11 -11 -11 -11 -11 -11 -11 -10 -11 -11 -11 -11 -11 -11
-12 -13 -16 -18 -17 -16 -16 -16 -14 -14 -13 -12 -11 -11 -11 -11 -11 -11 -11 -12 -12 -12 -13 -13 -12 -12 -11 -11 -11 -11 -11 -11 -11 -11 -11 -11 -11 -11 -10 -11 -11 -10 -10
-12 -14 -18 -17 -16 -16 -16 -15 -13 -13 -12 -10 -10 -11 -11 -11 -11 -11 -11 -11 -12 -12 -13 -12 -12 -12 -12 -11 -11 -11 -11 -11 -11 -11 -11 -10 -10 -10 -10 -10 -10 -10 -10
-15 -18 -17 -16 -16 -16 -15 -14 -12 -12 -12 -10 -10 -10 -10 -10 -10 -11 -11 -11 -11 -12 -13 -12 -12 -12 -11 -11 -11 -11 -11 -11 -11 -11 -10 -10 -10 -10 -10 -10 -10 -10 -11
-16 -15 -15 -15 -15 -14 -13 -12 -10 -11 -11 -10 -10 -10 -10 -11 -11 -11 -11 -11 -11 -12 -13 -12 -12 -11 -11 -11 -11 -11 -11 -12 -11 -11 -11 -10 -10 -10 -10 -10 -10 -10 -11
Wind_Speed
29 32 33 32 32 32 30 24 23 19 12 8 10 13 10 10 8 7 5 3 4 6 6 8 10 14 17 20 22 23 23 25 28 31 31 30 32 31 31 30 30 29 30
32 36 38 36 32 30 30 21 15 13 13 11 14 14 13 10 8 6 5 3 4 6 8 12 15 17 20 21 22 23 24 23 26 31 33 34 33 32 33 33 31 28 29
36 39 39 37 38 34 25 21 19 15 15 16 16 14 9 10 8 5 1 2 5 8 12 15 17 18 20 21 22 22 22 22 23 27 32 33 35 34 37 33 31 32 28
38 38 39 35 32 27 23 19 19 19 19 17 14 12 10 8 5 3 2 4 9 11 14 16 18 19 20 22 21 21 20 21 24 27 32 32 32 36 33 32 35 27 26
39 37 37 32 30 27 26 22 20 18 16 15 14 12 9 6 4 2 3 7 10 12 15 16 17 19 20 19 18 17 20 23 25 27 25 31 35 31 29 29 35 29 35
35 34 32 29 27 25 23 24 22 19 17 14 12 10 8 5 1 5 6 8 11 13 14 16 17 18 18 16 14 14 16 21 25 25 26 28 25 29 31 33 33 34 35
33 32 31 29 25 24 24 23 21 19 17 14 11 8 5 2 3 5 7 10 12 14 16 17 17 17 16 16 17 20 20 22 20 21 22 21 28 28 28 29 29 27 30
30 31 31 27 28 26 22 21 20 19 15 12 9 6 3 2 5 7 9 11 13 15 17 17 18 18 17 17 19 23 23 21 18 18 19 23 24 24 25 25 27 29 29
19 20 23 24 26 26 25 22 20 15 13 9 6 4 2 3 7 9 11 12 15 16 16 17 19 18 16 14 19 22 23 18 18 18 19 20 20 21 21 24 24 26 30
19 20 20 22 22 23 21 18 16 13 10 7 5 2 2 5 8 11 13 15 15 16 17 17 16 16 13 15 17 21 20 20 23 22 18 17 18 17 17 18 20 23 25
22 22 22 21 20 18 17 14 12 10 7 5 2 1 3 6 8 11 13 14 15 17 17 17 17 15 16 18 16 15 16 18 19 19 19 18 17 17 16 16 17 19 22
21 22 21 19 18 15 13 13 10 7 5 2 1 2 4 7 9 11 13 13 13 15 16 17 18 18 18 18 16 14 16 18 18 18 17 17 19 20 19 17 16 18 19
22 22 21 20 17 14 10 9 8 6 3 1 1 4 7 9 10 11 11 12 12 14 14 16 17 17 17 16 15 15 15 14 15 15 17 19 21 22 20 21 19 19 16
21 21 19 17 15 12 10 7 5 3 1 1 4 6 7 8 9 11 13 13 15 16 16 16 17 17 17 15 13 12 12 12 14 16 18 20 21 22 21 21 22 21 21
19 18 16 14 12 10 10 7 4 2 2 3 5 6 8 9 10 13 11 12 14 15 18 16 15 15 13 12 11 10 9 10 13 16 19 22 22 21 21 20 20 21 20
20 19 16 14 13 10 8 6 4 3 3 4 5 8 10 12 13 13 12 15 15 17 16 16 15 14 13 13 12 12 11 12 14 16 19 21 22 22 22 20 19 19 19
18 18 16 13 11 9 7 4 4 4 4 6 9 10 12 13 13 13 12 15 14 16 15 15 14 13 12 12 12 12 13 13 15 16 17 20 23 22 20 20 21 20 19
15 13 11 10 9 7 6 5 5 4 5 7 9 11 13 14 13 15 14 15 15 14 15 14 13 12 12 12 12 13 13 14 15 17 18 19 23 24 21 20 22 22 22
16 14 11 9 8 8 7 6 6 6 7 8 9 10 12 13 14 13 14 15 16 14 14 12 12 12 12 13 13 13 14 16 17 17 19 20 21 26 22 19 19 19 19
15 12 11 10 9 8 8 7 7 8 9 9 10 11 12 14 13 14 15 16 15 14 13 13 11 11 12 13 14 14 15 15 16 16 18 20 21 23 25 18 17 19 20
14 13 11 10 9 8 8 9 10 10 10 11 11 12 13 14 15 16 16 14 15 14 14 13 11 10 12 13 14 14 15 16 16 17 17 19 20 22 21 16 17 18 19
13 12 10 9 9 9 10 11 11 12 13 13 13 13 13 13 16 16 16 15 15 15 14 14 11 10 12 13 14 15 16 17 17 15 13 17 20 24 17 15 16 16 16
13 12 11 10 10 11 12 12 13 14 15 15 16 16 15 15 15 16 17 16 16 15 13 12 11 10 11 13 14 16 17 17 15 13 15 18 19 20 15 13 14 15 15
12 11 11 11 12 13 13 14 15 16 16 16 18 17 16 16 16 17 17 16 16 15 13 11 11 12 13 13 14 14 15 15 12 11 13 18 19 16 13 12 13 14 14
11 11 11 12 13 14 15 15 17 18 18 17 17 17 17 17 17 18 18 18 17 15 12 11 11 11 13 14 13 14 14 11 9 9 14 16 14 13 12 12 13 13 12
10 10 12 13 14 15 15 15 16 16 15 15 15 16 17 19 21 20 19 18 17 15 11 10 11 11 13 13 13 14 12 9 5 9 13 13 12 11 10 10 11 11 12
Wind_Direction
194 186 182 177 176 172 176 193 194 197 195 206 190 191 194 202 197 197 187 202 257 283 306 312 313 317 312 312 312 312 312 312 308 311 315 321 323 326 326 326 325 324 325
184 179 181 179 173 173 178 188 190 182 174 182 194 190 178 177 192 193 192 212 263 299 314 312 316 315 313 313 314 317 317 314 313 314 318 324 325 325 325 325 327 322 325
179 178 176 170 172 176 184 194 184 191 179 176 186 189 169 179 189 194 205 254 293 310 314 315 319 318 317 318 320 319 315 313 313 315 319 322 322 329 329 328 325 322 324
183 183 182 185 181 175 177 178 172 173 176 178 179 170 170 172 178 195 238 307 314 316 321 320 322 321 322 321 320 318 319 321 322 320 318 325 326 331 332 332 331 337 329
181 174 172 173 173 168 165 169 167 171 172 172 173 170 170 170 183 227 305 322 320 318 325 324 323 323 323 322 322 324 323 325 322 321 319 319 326 331 331 323 325 319 321
176 168 165 164 158 156 163 167 164 167 169 166 170 168 166 171 244 297 329 324 317 324 325 326 328 325 323 325 323 321 324 324 323 319 319 322 321 319 321 325 323 322 322
161 162 159 151 151 159 161 161 164 165 163 162 169 167 168 218 269 315 330 321 325 328 329 329 325 325 330 327 319 315 320 323 320 317 319 317 319 328 328 326 324 322 315
148 150 147 149 152 158 162 163 159 162 158 159 169 172 202 269 312 324 332 327 328 331 327 326 327 328 329 327 323 316 320 323 323 327 322 324 325 326 321 319 317 315 317
138 142 149 156 159 160 159 157 159 159 160 166 177 180 201 298 322 324 329 330 330 325 327 333 325 323 323 337 315 317 323 329 326 331 331 329 327 327 325 320 327 327 330
149 153 156 159 155 157 157 158 160 164 167 168 174 170 308 321 324 330 331 325 324 329 330 328 323 322 333 324 318 318 326 332 331 334 335 333 331 331 330 327 325 323 326
157 159 159 158 157 159 157 159 164 167 168 170 170 5 337 325 324 320 317 327 331 328 329 329 331 328 330 330 327 326 330 319 328 332 335 335 335 337 338 334 330 327 325
163 162 159 154 157 159 165 164 166 166 164 163 289 326 335 323 316 319 327 327 325 324 330 331 331 332 331 329 327 326 324 331 331 334 338 346 351 352 349 346 340 333 329
165 162 161 160 161 162 168 175 173 166 179 210 344 331 321 319 323 323 322 323 327 325 326 330 332 332 331 332 330 329 330 330 333 341 347 350 349 347 348 344 344 339 342
168 166 165 165 165 168 169 168 175 180 191 322 320 313 313 321 326 321 322 325 328 331 335 338 335 336 334 331 330 330 334 338 344 343 341 341 342 343 347 344 343 344 343
169 166 167 170 174 177 177 179 183 209 271 304 304 312 325 331 325 319 321 324 328 334 332 332 330 330 329 331 336 342 341 339 340 340 342 341 342 342 346 347 346 343 342
175 175 176 179 181 184 187 192 202 240 275 288 314 332 333 326 322 320 315 318 331 321 327 328 331 330 332 337 340 343 343 339 339 341 342 342 342 343 343 347 344 345 345
183 180 181 184 188 192 192 207 240 258 291 322 331 328 322 321 323 315 319 322 329 319 322 322 321 324 329 334 334 336 338 342 339 337 341 352 345 338 336 339 341 340 340
184 187 188 189 192 200 215 232 250 270 294 309 311 315 319 321 319 317 321 322 323 317 314 314 312 319 323 325 325 327 330 331 332 333 337 338 346 345 336 335 337 337 338
190 192 193 199 207 216 229 240 251 269 283 292 302 312 314 313 314 310 311 317 318 314 310 312 309 313 314 316 317 318 321 327 328 331 333 340 343 348 342 336 338 342 339
194 198 206 212 218 225 235 247 261 268 277 290 303 307 308 308 310 311 311 314 313 312 311 315 312 310 311 314 313 313 316 319 321 325 331 338 339 340 342 340 343 343 344
203 208 213 220 225 236 248 258 263 270 279 288 297 304 308 306 309 306 306 308 314 312 312 315 315 310 314 315 314 315 316 317 319 322 332 341 341 338 338 335 339 339 339
209 215 223 229 238 249 256 260 267 274 280 284 291 298 302 290 295 300 306 311 314 310 309 310 311 312 317 319 317 317 318 320 324 323 330 338 341 341 335 337 340 344 347
211 220 228 236 243 251 260 266 271 275 279 284 287 293 293 295 298 302 307 309 311 308 303 302 301 307 312 311 311 313 315 319 322 325 328 337 338 338 339 342 346 348 348
215 226 234 242 253 262 267 270 271 275 277 280 283 288 288 291 300 305 307 307 309 305 299 297 295 307 314 313 309 311 313 314 313 321 330 334 332 335 335 341 346 348 349
225 233 244 256 264 269 270 272 280 289 286 283 286 292 297 300 303 305 307 307 307 302 293 287 291 304 314 316 314 316 317 313 314 322 325 329 334 335 340 346 349 351 355
233 249 260 266 270 271 271 275 284 296 301 298 292 295 302 309 309 307 305 304 302 298 285 277 287 299 312 315 317 318 318 324 325 322 321 331 334 339 347 352 353 357 5
Height
1441 1449 1456 1464 1471 1476 1483 1497 1501 1503 1503 1505 1509 1514 1513 1517 1520 1523 1522 1524 1528 1530 1528 1528 1526 1525 1526 1525 1524 1520 1517 1513 1508 1504 1503 1500 1495 1491 1488 1485 1481 1476 1471
1441 1448 1457 1463 1470 1480 1488 1490 1498 1501 1502 1507 1514 1515 1511 1513 1522 1523 1522 1522 1527 1527 1526 1526 1524 1522 1522 1521 1518 1515 1512 1510 1505 1500 1497 1493 1490 1487 1483 1478 1474 1470 1467
1442 1448 1456 1464 1471 1477 1485 1487 1493 1498 1500 1505 1514 1514 1507 1514 1521 1522 1521 1523 1524 1524 1523 1523 1520 1518 1518 1516 1514 1511 1509 1506 1503 1497 1491 1489 1485 1481 1476 1472 1468 1464 1462
1442 1447 1455 1462 1468 1472 1478 1488 1493 1498 1503 1507 1511 1509 1513 1516 1518 1519 1521 1521 1521 1521 1520 1520 1516 1515 1513 1512 1510 1508 1505 1501 1498 1494 1489 1484 1481 1476 1472 1466 1461 1458 1454
1439 1446 1454 1462 1468 1473 1481 1489 1493 1498 1502 1506 1509 1510 1513 1514 1518 1519 1518 1518 1519 1520 1516 1516 1514 1511 1509 1509 1507 1503 1501 1497 1494 1490 1487 1482 1477 1472 1469 1464 1460 1454 1450
1432 1445 1453 1460 1466 1473 1480 1485 1489 1497 1501 1504 1509 1511 1512 1514 1516 1519 1516 1517 1518 1515 1514 1513 1510 1508 1508 1505 1504 1500 1498 1495 1492 1488 1483 1478 1475 1471 1466 1461 1456 1450 1443
1442 1449 1455 1462 1468 1476 1482 1486 1491 1497 1501 1504 1509 1511 1511 1513 1516 1516 1514 1516 1514 1511 1510 1509 1508 1506 1504 1502 1499 1496 1495 1492 1489 1484 1480 1477 1471 1467 1461 1457 1453 1450 1445
1448 1453 1459 1465 1472 1479 1484 1489 1493 1499 1502 1505 1510 1510 1511 1512 1513 1513 1512 1512 1510 1508 1507 1507 1504 1503 1501 1498 1496 1493 1490 1487 1483 1481 1477 1472 1468 1464 1460 1455 1450 1446 1442
1455 1461 1467 1472 1475 1480 1486 1491 1496 1500 1503 1505 1508 1510 1510 1511 1510 1510 1509 1508 1507 1506 1504 1502 1501 1500 1497 1496 1493 1488 1485 1482 1480 1477 1473 1469 1466 1462 1457 1452 1447 1442 1437
1462 1468 1473 1477 1479 1485 1489 1494 1498 1501 1503 1505 1508 1508 1508 1509 1508 1506 1507 1506 1505 1503 1501 1501 1499 1497 1495 1492 1489 1484 1481 1478 1474 1471 1470 1467 1463 1459 1455 1451 1446 1441 1437
1467 1472 1476 1480 1483 1488 1491 1495 1498 1500 1502 1504 1505 1506 1505 1507 1507 1505 1505 1503 1501 1501 1500 1499 1496 1494 1491 1487 1484 1482 1480 1477 1473 1470 1467 1463 1460 1456 1452 1449 1445 1441 1437
1471 1475 1478 1481 1485 1488 1492 1496 1498 1500 1501 1502 1504 1504 1505 1505 1504 1503 1501 1501 1500 1499 1498 1496 1493 1490 1487 1484 1482 1479 1476 1474 1471 1468 1465 1461 1457 1453 1449 1446 1443 1439 1435
1473 1477 1480 1484 1488 1492 1494 1497 1498 1499 1501 1502 1502 1503 1503 1503 1501 1500 1500 1499 1498 1497 1495 1493 1490 1487 1484 1482 1479 1476 1474 1471 1469 1466 1463 1459 1456 1452 1448 1443 1440 1436 1433
1475 1478 1482 1485 1488 1491 1494 1496 1498 1499 1500 1501 1501 1501 1502 1501 1499 1498 1497 1496 1495 1493 1491 1489 1486 1484 1481 1479 1477 1474 1471 1469 1467 1464 1461 1458 1454 1449 1445 1441 1436 1433 1429
1475 1479 1482 1486 1489 1491 1494 1496 1497 1498 1499 1500 1500 1500 1499 1498 1497 1496 1495 1493 1491 1490 1487 1486 1484 1482 1480 1477 1475 1473 1470 1468 1465 1462 1459 1455 1451 1447 1443 1439 1435 1432 1429
1476 1480 1483 1486 1489 1491 1493 1495 1496 1497 1498 1498 1498 1497 1496 1496 1495 1493 1492 1490 1489 1487 1485 1483 1482 1480 1478 1475 1472 1471 1469 1466 1464 1460 1457 1454 1449 1445 1441 1438 1435 1431 1427
1477 1480 1483 1486 1488 1490 1492 1493 1494 1495 1495 1495 1495 1495 1495 1494 1492 1491 1489 1487 1486 1484 1483 1481 1479 1478 1476 1473 1471 1469 1467 1465 1462 1459 1456 1452 1448 1444 1440 1436 1432 1429 1426
1478 1481 1483 1485 1487 1489 1490 1491 1492 1493 1493 1494 1494 1493 1492 1490 1489 1487 1486 1484 1483 1481 1480 1478 1477 1475 1473 1471 1469 1467 1465 1463 1461 1458 1454 1451 1446 1441 1437 1434 1431 1427 1423
1476 1479 1481 1483 1485 1487 1488 1489 1490 1491 1491 1492 1491 1491 1489 1488 1486 1485 1483 1482 1480 1478 1476 1475 1473 1471 1469 1468 1466 1465 1463 1461 1458 1455 1452 1448 1444 1440 1436 1433 1429 1426 1422
1475 1478 1480 1482 1483 1485 1486 1487 1488 1489 1489 1489 1488 1488 1486 1485 1483 1482 1480 1478 1476 1474 1472 1471 1470 1468 1466 1465 1464 1462 1460 1458 1456 1453 1450 1446 1442 1439 1434 1431 1428 1424 1421
1475 1477 1479 1481 1482 1483 1484 1485 1486 1486 1486 1486 1486 1485 1483 1481 1480 1478 1476 1474 1472 1470 1469 1467 1466 1465 1463 1462 1461 1459 1457 1455 1453 1450 1447 1444 1440 1436 1433 1430 1427 1423 1420
1474 1476 1478 1479 1480 1481 1482 1483 1483 1483 1483 1483 1482 1481 1480 1478 1477 1475 1473 1471 1469 1467 1465 1464 1463 1462 1461 1459 1458 1456 1454 1452 1450 1447 1445 1441 1438 1434 1431 1428 1425 1422 1419
1471 1473 1475 1476 1478 1478 1479 1480 1480 1480 1480 1479 1478 1477 1476 1475 1473 1470 1468 1467 1465 1463 1462 1461 1460 1459 1458 1457 1455 1453 1450 1449 1447 1444 1442 1439 1436 1433 1430 1427 1424 1421 1418
1468 1470 1472 1474 1475 1475 1475 1476 1476 1475 1475 1474 1473 1472 1471 1470 1468 1466 1465 1463 1461 1460 1458 1457 1457 1455 1455 1454 1452 1450 1448 1446 1444 1442 1440 1437 1434 1431 1429 1426 1424 1421 1418
1465 1467 1469 1470 1470 1471 1471 1471 1471 1471 1469 1469 1468 1468 1467 1465 1464 1462 1461 1459 1457 1456 1455 1454 1453 1452 1451 1450 1448 1446 1444 1442 1441 1439 1438 1435 1432 1430 1427 1425 1423 1420 1417
1463 1465 1466 1466 1466 1467 1467 1467 1466 1466 1465 1465 1464 1464 1463 1461 1460 1458 1456 1454 1453 1452 1451 1451 1450 1449 1448 1447 1445 1443 1441 1440 1438 1438 1435 1433 1431 1429 1426 1424 1422 1420 1418